Wind_Speed
22 21 19 17 16 15 15 13 13 13 12 11 11 11 10 10 9 9 7 7 8 9 10 9 8 6 5 5 6 7 8 9 8 8 8 8 8 7 8 8 7 8
26 24 21 19 17 16 15 14 13 13 12 11 10 10 10 10 9 8 7 8 8 10 10 9 8 6 5 5 6 7 8 9 9 8 9 9 8 8 8 8 8 8
27 26 21 18 17 17 16 14 14 13 12 11 10 10 10 10 9 8 8 8 8 9 10 8 7 5 5 5 6 7 8 9 9 9 9 9 8 8 8 7 8 8
25 24 20 17 17 17 16 15 14 13 12 12 11 10 10 10 10 9 9 9 8 8 9 8 7 5 5 5 7 8 8 8 9 9 9 9 8 8 8 7 8 8
24 23 20 18 18 18 17 16 15 14 13 13 12 11 10 10 11 10 10 9 8 8 9 8 7 5 5 6 7 8 8 7 7 8 8 8 8 8 7 8 8 9
23 21 17 17 19 19 17 16 15 15 14 14 13 11 11 11 11 10 10 9 9 9 9 8 6 6 5 6 7 7 7 6 6 7 7 8 8 7 7 7 8 10
24 21 17 18 20 19 17 16 15 15 14 14 13 11 11 11 10 10 10 9 9 9 10 8 6 6 6 6 7 7 7 7 6 6 6 7 7 6 6 6 7 8
25 23 20 20 20 18 16 15 15 15 14 13 12 11 11 10 10 11 10 9 9 10 10 8 7 6 6 6 7 8 7 7 6 6 6 6 6 6 6 6 5 7
23 23 21 20 19 17 16 15 15 15 14 13 12 11 10 10 10 10 10 9 10 10 10 8 7 6 6 6 7 8 8 7 6 6 6 6 6 6 6 6 6 6
19 19 18 17 16 15 16 16 15 14 14 13 13 11 10 10 10 10 9 9 10 11 10 8 7 7 6 6 7 7 7 7 7 7 7 6 7 6 5 5 6 7
17 17 18 20 19 15 15 16 15 14 14 13 12 12 11 11 10 10 9 10 10 10 10 8 7 7 7 7 7 6 6 7 7 7 7 7 6 6 5 5 6 8
20 21 24 26 22 16 15 16 15 14 13 12 12 12 11 11 10 9 9 9 10 9 9 8 7 6 6 7 7 7 6 6 6 6 6 6 6 6 5 5 5 7
17 20 26 28 23 18 16 15 15 14 13 12 12 12 12 11 11 10 9 9 9 8 8 7 7 6 6 6 7 6 6 5 6 6 6 5 5 5 5 5 5 6
14 17 23 26 23 18 16 16 15 14 13 12 13 12 12 11 11 10 9 9 8 8 7 6 6 5 5 5 5 6 5 5 5 6 6 6 5 4 4 4 5 6
16 17 18 20 19 16 16 16 16 14 14 13 13 12 11 10 10 10 9 8 8 7 6 5 5 5 5 5 4 5 5 4 4 5 6 6 6 5 4 4 5 5
16 17 17 18 18 17 16 17 16 15 13 13 12 11 10 9 9 8 8 8 8 7 6 5 5 6 7 6 5 4 4 3 3 4 5 6 6 6 5 5 5 5
15 18 19 18 17 18 20 19 18 17 15 13 11 10 9 8 8 8 8 9 9 8 7 8 7 7 7 7 6 5 4 3 3 4 4 5 6 5 6 6 5 5
17 18 20 19 17 20 22 19 16 14 11 9 8 8 8 8 8 9 10 11 11 11 10 9 8 7 7 6 6 5 5 4 3 4 4 4 5 4 4 5 5 4
22 22 22 21 20 19 18 16 13 10 9 8 9 10 11 10 11 11 12 13 14 13 13 12 10 8 7 6 5 5 6 5 3 3 4 4 3 3 3 3 3 3
24 23 20 18 18 18 17 16 16 15 14 12 11 12 12 12 12 13 13 13 13 14 14 12 11 10 8 6 5 4 5 5 3 2 3 3 2 2 2 2 3 3
21 22 21 19 19 21 21 20 20 19 16 14 13 15 16 14 14 15 14 13 12 12 13 12 11 9 7 6 5 4 4 4 2 1 2 2 2 2 3 3 3 4
19 21 21 20 21 22 22 21 20 19 17 16 17 17 18 17 16 15 14 12 11 10 11 11 10 8 7 6 5 4 4 3 1 1 1 2 2 2 3 3 4 4
20 21 20 19 19 20 20 19 18 17 16 16 15 16 16 16 15 14 12 12 11 9 8 8 7 7 5 4 4 4 3 2 0 1 1 2 2 3 3 3 4 5
21 22 22 21 20 19 18 17 17 16 16 13 12 13 13 12 12 12 11 11 10 9 7 5 4 4 3 2 2 3 3 1 1 2 2 2 3 4 4 5 6 8
19 18 18 19 19 18 16 14 13 13 12 10 8 9 9 8 9 9 9 8 7 7 6 4 2 0 1 1 2 3 2 1 2 3 3 3 4 4 4 5 6 8
17 16 15 14 15 14 12 11 11 10 9 8 7 7 7 7 7 7 7 6 5 4 4 3 2 2 4 4 4 5 4 2 2 3 3 3 4 5 5 6 6 6
Wind_Direction
172 172 173 173 169 167 168 167 166 166 165 162 161 161 161 160 161 164 165 169 174 170 165 164 163 163 167 177 183 177 171 167 170 177 180 192 201 196 199 205 210 220
173 173 172 170 168 166 168 168 165 165 164 161 157 156 157 159 161 164 163 164 166 161 159 157 155 160 168 177 181 170 166 169 170 177 182 189 196 194 196 198 201 217
176 175 172 169 168 166 166 167 163 162 161 156 154 153 154 159 162 160 159 159 158 156 155 153 151 157 169 177 179 168 164 167 166 171 179 184 191 190 188 189 192 206
179 179 176 172 170 168 167 165 162 162 161 156 153 153 153 157 158 155 155 157 157 156 155 151 147 150 165 178 182 174 167 164 163 167 174 178 184 182 177 177 181 193
183 184 180 173 170 170 169 167 165 164 164 160 156 154 155 155 155 154 154 155 158 160 156 152 148 150 163 174 181 176 169 165 165 169 173 173 172 172 171 171 175 184
187 184 178 173 170 172 172 169 169 168 166 164 159 156 156 156 155 155 154 155 159 162 160 158 154 154 157 163 168 166 160 159 163 169 174 169 163 162 162 168 174 181
189 182 175 174 172 173 173 170 170 171 168 165 161 158 157 157 158 156 155 157 159 162 163 161 157 155 154 151 150 145 141 145 153 164 168 161 158 157 156 162 170 177
190 184 177 176 175 174 172 170 172 172 170 166 161 158 158 159 157 156 156 158 160 162 162 159 155 152 154 152 146 141 139 140 147 156 154 147 152 154 151 157 164 171
188 185 180 177 177 175 172 171 172 171 170 167 161 158 158 159 157 156 157 158 160 162 159 157 154 149 152 152 148 149 148 145 144 144 141 140 145 144 145 156 161 163
179 174 170 168 170 175 174 172 171 170 170 166 160 158 157 156 156 157 157 156 160 162 159 157 154 154 157 152 149 151 149 147 145 140 137 137 134 131 132 147 160 163
161 155 159 163 166 170 172 171 168 166 167 163 158 157 154 153 154 157 157 156 159 161 160 159 156 158 163 159 154 150 147 148 147 142 140 135 128 121 114 122 149 161
155 159 165 167 169 168 168 169 165 160 160 157 154 152 149 149 151 152 154 156 159 161 160 158 156 155 159 163 163 158 154 152 148 146 144 139 135 129 115 107 126 150
153 160 161 164 171 172 166 164 159 154 152 150 149 146 144 144 143 143 146 147 150 155 154 152 152 151 151 159 166 165 164 161 159 161 156 150 147 140 128 111 110 134
161 162 159 162 169 166 156 151 149 149 148 145 144 142 140 140 139 138 137 136 137 141 143 144 148 148 144 149 160 163 163 163 167 176 175 168 165 155 143 128 114 120
156 153 153 154 151 142 136 136 137 140 141 142 143 142 140 139 140 141 140 137 137 134 132 132 137 147 150 148 147 153 160 162 165 180 186 183 180 174 162 151 135 122
144 139 140 140 137 130 126 128 132 133 133 134 136 136 136 137 140 146 147 146 141 134 141 160 169 170 170 165 157 152 157 161 159 170 183 184 183 179 172 167 155 135
127 130 132 133 133 132 132 133 136 138 136 135 135 134 133 130 131 138 137 132 128 131 154 176 181 182 184 182 180 171 157 161 163 161 168 176 177 176 175 176 171 157
112 120 127 130 131 134 137 138 141 142 145 152 160 163 155 136 124 123 121 120 123 128 136 141 144 157 170 179 187 183 167 161 165 164 165 169 172 173 172 171 171 174
118 118 120 124 128 131 136 143 148 146 146 154 159 159 152 136 123 116 113 118 127 127 122 119 119 121 129 142 159 171 169 160 158 176 178 176 179 181 177 171 178 190
117 114 110 112 120 127 131 135 137 131 126 128 130 130 127 118 114 113 108 110 119 121 119 117 116 112 113 118 118 130 150 148 143 167 175 175 183 193 207 210 213 223
107 112 111 109 116 126 128 127 128 124 119 116 120 124 121 114 112 114 110 105 107 115 118 115 112 113 118 122 120 125 136 129 125 162 178 188 188 192 210 214 218 233
100 106 108 108 114 121 124 125 125 120 116 118 121 122 121 118 114 110 105 99 98 103 110 112 113 115 120 123 128 137 131 112 115 193 200 222 216 217 229 225 224 232
99 102 103 104 107 109 112 119 123 119 116 118 120 118 118 118 115 110 107 108 107 101 99 107 115 118 122 129 132 140 130 107 207 223 220 240 247 259 261 252 251 253
96 100 103 104 103 101 102 110 117 119 119 116 113 113 116 116 116 115 115 117 121 118 109 105 111 119 129 140 158 173 159 118 302 253 236 243 248 256 260 261 268 270
92 94 97 101 103 101 99 101 105 109 111 107 99 102 107 109 111 112 109 109 115 121 116 103 85 33 240 232 261 251 212 188 314 283 255 255 259 258 257 254 262 270
93 90 88 89 94 94 94 97 99 96 93 89 86 89 93 95 99 102 104 104 101 104 113 110 84 328 300 285 284 284 267 270 347 326 297 301 293 276 266 258 252 254
Height
809 812 815 817 819 821 822 824 825 826 828 829 830 831 832 833 834 835 836 836 836 837 838 839 840 840 840 841 841 842 843 844 845 846 847 847 848 848 848 849 849 850
807 810 813 815 817 820 822 823 825 826 828 829 830 831 832 833 834 835 835 836 836 837 838 839 840 840 840 841 841 841 842 843 844 845 846 846 847 847 848 848 849 849
808 810 812 815 816 819 821 823 825 826 828 829 830 831 832 833 834 835 835 836 836 837 838 839 840 840 841 840 841 841 841 842 843 844 845 845 846 846 847 848 848 849
809 811 813 815 817 819 821 823 825 826 828 829 830 831 832 833 834 834 835 836 836 837 838 839 840 840 841 840 840 841 841 841 842 843 844 844 845 845 846 847 848 848
810 812 814 815 817 819 821 822 824 826 827 829 830 831 832 833 833 834 835 835 836 837 838 839 840 840 841 840 840 840 840 841 841 842 842 843 844 844 845 846 847 848
810 812 814 815 817 819 821 822 824 826 827 828 829 830 831 832 833 833 834 835 836 837 838 839 840 840 841 840 840 840 840 841 841 841 842 842 843 843 844 845 846 847
809 811 813 815 816 819 821 822 825 826 827 828 828 830 830 831 832 833 834 835 836 837 838 839 840 840 840 840 840 840 841 841 841 841 842 842 843 843 843 844 845 846
808 810 812 815 817 819 821 823 825 826 827 828 828 829 830 831 832 833 834 835 836 837 838 839 839 840 840 840 840 841 841 841 842 842 842 842 843 843 843 844 844 845
808 810 812 815 817 819 821 823 824 826 827 827 828 829 830 831 832 833 834 835 836 837 837 838 839 839 840 840 840 841 841 841 842 842 842 842 843 843 843 844 844 845
808 810 812 814 816 819 821 822 824 825 826 827 827 828 829 830 831 833 834 835 836 837 837 838 839 839 840 840 840 841 841 841 842 842 842 842 843 843 843 844 844 844
806 807 809 811 814 817 820 822 823 825 826 826 827 828 829 830 831 832 834 835 836 836 837 838 838 839 839 840 840 841 841 841 842 842 842 843 843 843 843 844 844 844
802 803 806 809 812 816 819 821 823 824 825 826 827 828 828 830 831 832 834 834 835 836 837 838 838 839 839 840 840 841 841 842 842 842 842 843 843 843 844 844 844 844
803 804 805 808 811 815 818 820 822 824 825 826 827 828 828 829 831 832 833 834 835 836 837 838 838 839 839 840 840 841 841 842 842 842 843 843 843 843 844 844 844 844
807 807 807 808 811 814 817 819 822 824 825 826 827 828 829 830 831 832 833 834 835 836 837 838 838 839 839 840 840 841 841 842 842 843 843 843 844 844 844 845 845 845
807 807 808 809 811 815 817 819 821 823 825 826 828 829 830 830 831 832 834 835 836 836 837 838 838 839 839 840 840 841 841 842 842 843 843 843 844 844 845 845 845 845
805 806 808 810 813 815 817 819 821 823 825 826 828 829 830 830 831 833 834 835 836 837 837 838 838 838 839 840 840 841 841 842 842 843 843 843 844 844 845 845 845 846
806 807 809 811 814 815 816 819 821 823 824 826 827 828 829 830 832 833 834 835 836 836 837 837 838 838 839 840 840 841 841 842 842 843 843 844 844 844 845 845 845 846
808 809 810 811 814 815 817 819 821 823 825 826 827 829 830 831 832 833 834 834 835 836 836 837 837 838 838 839 840 840 841 841 842 843 843 844 844 844 844 845 845 846
810 811 812 813 815 817 819 820 822 824 826 828 829 830 831 832 833 834 834 834 834 836 836 837 838 838 838 839 839 839 840 841 842 843 843 843 844 844 845 845 846 846
811 812 814 816 817 818 820 822 824 825 827 829 831 832 832 833 834 834 834 835 835 836 837 837 838 838 839 839 839 839 840 840 842 842 843 843 844 844 844 845 846 846
813 814 816 818 819 820 822 823 825 826 828 830 831 832 833 833 834 834 835 836 837 837 837 838 838 839 839 839 839 840 840 840 841 842 842 843 843 843 844 844 845 845
817 818 819 821 822 823 824 825 827 828 829 830 832 833 833 833 834 835 835 837 838 838 838 838 839 839 839 839 840 840 840 841 841 841 842 842 842 842 843 843 844 844
821 821 823 824 825 826 826 828 829 830 830 831 833 833 833 834 834 835 836 837 838 839 839 839 839 839 839 839 840 840 841 841 842 842 842 842 842 842 842 842 842 843
824 825 826 827 828 829 829 830 831 832 832 833 833 834 834 835 836 836 837 837 838 839 839 839 839 839 839 839 840 840 841 841 842 842 842 842 842 842 842 842 842 841
827 828 829 829 830 831 832 833 833 834 834 834 835 835 836 837 837 837 838 837 838 839 839 839 840 839 839 839 839 839 840 841 841 842 842 842 842 842 842 842 841 841
829 830 831 832 832 833 833 834 834 835 835 835 836 836 837 837 837 837 838 838 838 838 838 839 839 838 838 838 838 839 839 840 841 841 841 841 841 841 841 841 841 840